Location: Wojcin
(51.3330°N, 20.0330°E)
Time: 21:15:02
(UTC+02:00)

Tiangong - Visible Passes

Search period start: 01 October 2023 00:00
Search period end: 11 October 2023 00:00
Orbit: 372 x 384 km, 41.5° (Epoch: 01 October)

Date Brightness Start Highest point End Pass type
(mag) Time Alt. Az. Time Alt. Az. Time Alt. Az.
02 Oct 0.2 19:36:46 10° SSW 19:38:04 12° S 19:38:32 12° SSE visible
03 Oct 0.3 20:10:34 10° SW 20:11:34 13° SSW 20:11:34 13° SSW visible
04 Oct 0.2 19:08:54 10° SSW 19:10:32 13° S 19:12:09 10° SE visible
05 Oct 0.2 19:42:55 10° SW 19:44:35 14° S 19:45:13 13° S visible
06 Oct 0.3 18:40:54 10° SSW 18:42:39 14° S 18:44:22 10° SE visible
07 Oct 0.5 19:15:07 10° SW 19:16:30 12° S 19:17:53 10° SSE visible
09 Oct 0.7 18:47:21 10° SSW 18:48:03 11° SSW 18:48:46 10° S visible
